• In Deutschland
  • Länderverzeichnis
  • Für 7 Tage
  • Wassertemperatur
  • Satellitenkarten
  • Wetterkarte
  • Widgets
  • user-avatar
    Anmelden

    Stündliche Wetter Wülfrath

    Heute, 25 Juni, Montag

    Zeit Temperatur Niederschläge Wind Luftdruck Luftfeuchtigkeit
    00:00 +13°C° 0 mm 2 m/S 747 mmHg 90%
    01:00 +13°C° 0 mm 2 m/S 747 mmHg 90%
    02:00 +13°C° 0 mm 2 m/S 747 mmHg 91%
    03:00 +13°C° 0 mm 2 m/S 747 mmHg 91%
    04:00 +13°C° 0 mm 2 m/S 748 mmHg 90%
    05:00 +13°C° 0 mm 2 m/S 748 mmHg 89%
    06:00 +14°C° 0 mm 2 m/S 748 mmHg 88%
    07:00 +14°C° 0 mm 2 m/S 748 mmHg 85%
    08:00 +15°C° 0 mm 2 m/S 748 mmHg 81%
    09:00 +16°C° 0 mm 2 m/S 748 mmHg 77%
    10:00 +17°C° 0 mm 2 m/S 749 mmHg 70%
    11:00 +19°C° 0 mm 2 m/S 749 mmHg 62%
    12:00 +20°C° 0 mm 3 m/S 749 mmHg 55%
    13:00 +21°C° 0 mm 3 m/S 749 mmHg 54%
    14:00 +22°C° 0 mm 3 m/S 749 mmHg 52%
    15:00 +22°C° 0 mm 3 m/S 748 mmHg 50%
    16:00 +22°C° 0 mm 3 m/S 748 mmHg 53%
    17:00 +21°C° 0 mm 3 m/S 748 mmHg 56%
    18:00 +21°C° 0 mm 3 m/S 748 mmHg 60%
    19:00 +19°C° 0 mm 3 m/S 748 mmHg 65%
    20:00 +17°C° 0 mm 3 m/S 749 mmHg 70%
    21:00 +16°C° 0 mm 2 m/S 749 mmHg 75%
    22:00 +15°C° 0 mm 2 m/S 749 mmHg 78%
    23:00 +14°C° 0 mm 2 m/S 749 mmHg 81%

    Morgen, 26 Juni, Dienstag

    Zeit Temperatur Niederschläge Wind Luftdruck Luftfeuchtigkeit
    00:00 +13°C° 0 mm 2 m/S 749 mmHg 84%
    01:00 +12°C° 0 mm 2 m/S 749 mmHg 85%
    02:00 +12°C° 0 mm 2 m/S 749 mmHg 87%
    03:00 +11°C° 0 mm 1 m/S 749 mmHg 89%
    04:00 +12°C° 0 mm 1 m/S 749 mmHg 85%
    05:00 +13°C° 0 mm 1 m/S 749 mmHg 81%
    06:00 +14°C° 0 mm 1 m/S 749 mmHg 78%
    07:00 +16°C° 0 mm 2 m/S 749 mmHg 71%
    08:00 +17°C° 0 mm 2 m/S 749 mmHg 64%
    09:00 +19°C° 0 mm 2 m/S 749 mmHg 57%
    10:00 +20°C° 0 mm 2 m/S 749 mmHg 53%
    11:00 +23°C° 0 mm 2 m/S 749 mmHg 49%
    12:00 +24°C° 0 mm 3 m/S 749 mmHg 44%
    13:00 +24°C° 0 mm 3 m/S 748 mmHg 44%
    14:00 +25°C° 0 mm 3 m/S 748 mmHg 44%
    15:00 +25°C° 0 mm 3 m/S 748 mmHg 44%
    16:00 +25°C° 0 mm 3 m/S 748 mmHg 48%
    17:00 +24°C° 0 mm 3 m/S 748 mmHg 53%
    18:00 +22°C° 0 mm 3 m/S 748 mmHg 57%
    19:00 +21°C° 0 mm 2 m/S 748 mmHg 64%
    20:00 +19°C° 0 mm 2 m/S 748 mmHg 71%
    21:00 +17°C° 0 mm 2 m/S 749 mmHg 78%
    22:00 +17°C° 0 mm 2 m/S 749 mmHg 82%
    23:00 +16°C° 0 mm 2 m/S 749 mmHg 86%

    übermorgen, 27 Juni, Mittwoch

    Zeit Temperatur Niederschläge Wind Luftdruck Luftfeuchtigkeit
    00:00 +15°C° 0 mm 2 m/S 749 mmHg 89%
    01:00 +15°C° 0 mm 2 m/S 749 mmHg 90%
    02:00 +15°C° 0 mm 1 m/S 748 mmHg 91%
    03:00 +14°C° 0 mm 1 m/S 748 mmHg 92%
    04:00 +16°C° 0 mm 1 m/S 749 mmHg 88%
    05:00 +17°C° 0 mm 2 m/S 749 mmHg 84%
    06:00 +18°C° 0 mm 2 m/S 749 mmHg 80%
    07:00 +20°C° 0 mm 2 m/S 749 mmHg 69%
    08:00 +21°C° 0 mm 3 m/S 749 mmHg 58%
    09:00 +24°C° 0 mm 3 m/S 749 mmHg 47%
    10:00 +25°C° 0 mm 4 m/S 749 mmHg 45%
    11:00 +26°C° 0 mm 4 m/S 749 mmHg 42%
    12:00 +27°C° 0 mm 4 m/S 748 mmHg 40%
    13:00 +27°C° 0 mm 5 m/S 748 mmHg 41%
    14:00 +27°C° 0 mm 5 m/S 748 mmHg 42%
    15:00 +27°C° 0 mm 5 m/S 748 mmHg 42%
    16:00 +26°C° 0 mm 4 m/S 748 mmHg 47%
    17:00 +25°C° 0 mm 4 m/S 748 mmHg 51%
    18:00 +24°C° 0 mm 3 m/S 747 mmHg 56%
    19:00 +22°C° 0 mm 3 m/S 748 mmHg 61%
    20:00 +20°C° 0 mm 3 m/S 748 mmHg 67%
    21:00 +19°C° 0 mm 2 m/S 748 mmHg 72%
    22:00 +18°C° 0 mm 2 m/S 748 mmHg 76%
    23:00 +17°C° 0 mm 2 m/S 748 mmHg 79%

    28 Juni, Donnerstag

    Zeit Temperatur Niederschläge Wind Luftdruck Luftfeuchtigkeit
    00:00 +17°C° 0 mm 2 m/S 748 mmHg 83%
    01:00 +16°C° 0 mm 2 m/S 748 mmHg 83%
    02:00 +16°C° 0 mm 2 m/S 748 mmHg 84%
    03:00 +15°C° 0 mm 2 m/S 747 mmHg 84%
    04:00 +16°C° 0 mm 2 m/S 747 mmHg 81%
    05:00 +17°C° 0 mm 2 m/S 747 mmHg 77%
    06:00 +17°C° 0 mm 2 m/S 747 mmHg 73%
    07:00 +19°C° 0 mm 3 m/S 747 mmHg 66%
    08:00 +20°C° 0 mm 3 m/S 747 mmHg 60%
    09:00 +22°C° 0 mm 3 m/S 747 mmHg 54%
    10:00 +24°C° 0 mm 3 m/S 746 mmHg 51%
    11:00 +25°C° 0 mm 4 m/S 746 mmHg 48%
    12:00 +26°C° 0 mm 4 m/S 746 mmHg 46%
    13:00 +26°C° 0 mm 4 m/S 746 mmHg 47%
    14:00 +26°C° 0 mm 4 m/S 745 mmHg 48%
    15:00 +26°C° 0 mm 4 m/S 745 mmHg 48%
    16:00 +26°C° 0 mm 4 m/S 745 mmHg 52%
    17:00 +25°C° 0 mm 4 m/S 745 mmHg 56%
    18:00 +23°C° 0 mm 4 m/S 745 mmHg 61%
    19:00 +22°C° 0 mm 4 m/S 745 mmHg 64%
    20:00 +21°C° 0 mm 4 m/S 745 mmHg 68%
    21:00 +20°C° 0 mm 4 m/S 745 mmHg 72%
    22:00 +19°C° 0 mm 4 m/S 745 mmHg 75%
    23:00 +18°C° 0 mm 4 m/S 745 mmHg 78%

    29 Juni, Freitag

    Zeit Temperatur Niederschläge Wind Luftdruck Luftfeuchtigkeit
    00:00 +17°C° 0 mm 3 m/S 745 mmHg 80%
    01:00 +17°C° 0 mm 3 m/S 744 mmHg 82%
    02:00 +16°C° 0 mm 3 m/S 744 mmHg 83%
    03:00 +16°C° 0 mm 3 m/S 744 mmHg 85%
    04:00 +17°C° 0 mm 3 m/S 744 mmHg 81%
    05:00 +17°C° 0 mm 3 m/S 744 mmHg 77%
    06:00 +18°C° 0 mm 4 m/S 744 mmHg 74%
    07:00 +20°C° 0 mm 4 m/S 744 mmHg 67%
    08:00 +22°C° 0 mm 4 m/S 744 mmHg 61%
    09:00 +23°C° 0 mm 4 m/S 744 mmHg 55%
    10:00 +25°C° 0 mm 5 m/S 744 mmHg 52%
    11:00 +26°C° 0 mm 5 m/S 743 mmHg 48%
    12:00 +27°C° 0 mm 5 m/S 743 mmHg 45%
    13:00 +27°C° 0 mm 5 m/S 743 mmHg 45%
    14:00 +27°C° 0 mm 5 m/S 743 mmHg 45%
    15:00 +27°C° 0 mm 5 m/S 743 mmHg 45%
    16:00 +26°C° 0 mm 5 m/S 743 mmHg 49%
    17:00 +25°C° 0 mm 4 m/S 743 mmHg 53%
    18:00 +23°C° 0 mm 4 m/S 743 mmHg 57%
    19:00 +21°C° 0 mm 4 m/S 743 mmHg 65%
    20:00 +19°C° 0 mm 3 m/S 744 mmHg 72%
    21:00 +17°C° 0 mm 3 m/S 744 mmHg 79%
    22:00 +16°C° 0 mm 3 m/S 744 mmHg 82%
    23:00 +15°C° 0 mm 2 m/S 744 mmHg 85%

    30 Juni, Samstag

    Zeit Temperatur Niederschläge Wind Luftdruck Luftfeuchtigkeit
    00:00 +14°C° 0 mm 2 m/S 744 mmHg 88%
    01:00 +14°C° 0 mm 2 m/S 744 mmHg 88%
    02:00 +13°C° 0 mm 1 m/S 744 mmHg 89%
    03:00 +13°C° 0 mm 1 m/S 744 mmHg 89%
    04:00 +14°C° 0 mm 1 m/S 744 mmHg 84%
    05:00 +15°C° 0 mm 1 m/S 745 mmHg 79%
    06:00 +16°C° 0 mm 1 m/S 745 mmHg 75%
    07:00 +20°C° 0 mm 1 m/S 745 mmHg 67%
    08:00 +22°C° 0 mm 1 m/S 745 mmHg 60%
    09:00 +24°C° 0 mm 1 m/S 745 mmHg 53%
    10:00 +25°C° 0 mm 1 m/S 745 mmHg 49%
    11:00 +27°C° 0 mm 2 m/S 745 mmHg 45%
    12:00 +28°C° 0 mm 2 m/S 745 mmHg 41%
    13:00 +28°C° 0 mm 2 m/S 745 mmHg 40%
    14:00 +29°C° 0 mm 2 m/S 745 mmHg 39%
    15:00 +29°C° 0 mm 2 m/S 745 mmHg 38%
    16:00 +28°C° 0 mm 2 m/S 745 mmHg 43%
    17:00 +28°C° 0 mm 2 m/S 745 mmHg 47%
    18:00 +27°C° 0 mm 3 m/S 745 mmHg 51%
    19:00 +26°C° 0 mm 3 m/S 745 mmHg 57%
    20:00 +24°C° 0 mm 3 m/S 746 mmHg 62%
    21:00 +21°C° 0 mm 3 m/S 746 mmHg 68%
    22:00 +21°C° 0 mm 3 m/S 746 mmHg 69%
    23:00 +20°C° 0 mm 3 m/S 746 mmHg 71%
    Mehr zeigen